Time,TemperatureF,DewpointF,PressureIn,WindDirection,WindDirectionDegrees,WindSpeedMPH,WindSpeedGustMPH,Humidity,HourlyPrecipIn,Conditions,Clouds,dailyrainin,SoftwareType,DateUTC
2013-06-20 00:00:00,69.7,59.5,30.09,ESE,105,0.0,14.0,70,0.00,,,0.00,Wunderground v.1.15,2013-06-20 05:00:00,
2013-06-20 00:05:00,69.5,59.7,30.09,ESE,103,1.0,14.0,71,0.00,,,0.00,Wunderground v.1.15,2013-06-20 05:05:00,
2013-06-20 00:10:00,69.4,59.6,30.09,East,101,1.0,1.0,71,0.00,,,0.00,Wunderground v.1.15,2013-06-20 05:10:00,
2013-06-20 00:15:00,69.2,59.8,30.09,East,101,0.0,14.0,72,0.00,,,0.00,Wunderground v.1.15,2013-06-20 05:15:00,
2013-06-20 00:20:00,69.0,60.0,30.09,East,101,0.0,14.0,73,0.00,,,0.00,Wunderground v.1.15,2013-06-20 05:20:00,
2013-06-20 00:30:00,68.4,59.4,30.09,East,101,0.0,14.0,73,0.00,,,0.00,Wunderground v.1.15,2013-06-20 05:30:00,
2013-06-20 00:35:00,68.1,59.5,30.09,East,101,0.0,14.0,74,0.00,,,0.00,Wunderground v.1.15,2013-06-20 05:35:00,
2013-06-20 00:40:00,67.8,59.6,30.10,East,101,0.0,14.0,75,0.00,,,0.00,Wunderground v.1.15,2013-06-20 05:40:00,
2013-06-20 00:45:00,67.5,59.7,30.10,East,101,0.0,14.0,76,0.00,,,0.00,Wunderground v.1.15,2013-06-20 05:45:00,
2013-06-20 00:50:00,67.0,59.5,30.10,East,101,0.0,14.0,77,0.00,,,0.00,Wunderground v.1.15,2013-06-20 05:50:00,
2013-06-20 00:55:00,66.5,59.4,30.10,East,101,0.0,14.0,78,0.00,,,0.00,Wunderground v.1.15,2013-06-20 05:55:00,
2013-06-20 01:00:00,66.1,59.4,30.10,East,101,0.0,14.0,79,0.00,,,0.00,Wunderground v.1.15,2013-06-20 06:00:00,
2013-06-20 01:05:00,65.9,59.6,30.10,East,101,0.0,14.0,80,0.00,,,0.00,Wunderground v.1.15,2013-06-20 06:05:00,
2013-06-20 01:10:00,65.7,59.7,30.10,East,101,0.0,14.0,81,0.00,,,0.00,Wunderground v.1.15,2013-06-20 06:10:00,
2013-06-20 01:15:00,65.5,59.9,30.10,East,101,0.0,14.0,82,0.00,,,0.00,Wunderground v.1.15,2013-06-20 06:15:00,
2013-06-20 01:20:00,65.6,60.0,30.10,East,101,0.0,14.0,82,0.00,,,0.00,Wunderground v.1.15,2013-06-20 06:20:00,
2013-06-20 01:25:00,65.9,60.2,30.10,East,101,0.0,14.0,82,0.00,,,0.00,Wunderground v.1.15,2013-06-20 06:25:00,
2013-06-20 01:35:00,66.3,60.3,30.10,East,101,0.0,14.0,81,0.00,,,0.00,Wunderground v.1.15,2013-06-20 06:35:00,
2013-06-20 01:40:00,66.4,60.4,30.10,East,101,0.0,14.0,81,0.00,,,0.00,Wunderground v.1.15,2013-06-20 06:40:00,
2013-06-20 01:45:00,66.5,60.5,30.10,East,101,0.0,14.0,81,0.00,,,0.00,Wunderground v.1.15,2013-06-20 06:45:00,
2013-06-20 01:50:00,66.6,60.6,30.10,East,101,0.0,14.0,81,0.00,,,0.00,Wunderground v.1.15,2013-06-20 06:50:00,
2013-06-20 01:55:00,66.6,60.6,30.10,East,98,0.0,14.0,81,0.00,,,0.00,Wunderground v.1.15,2013-06-20 06:55:00,
2013-06-20 02:05:00,66.4,60.7,30.10,East,98,0.0,14.0,82,0.00,,,0.00,Wunderground v.1.15,2013-06-20 07:05:00,
2013-06-20 02:10:00,66.3,60.6,30.10,East,98,0.0,14.0,82,0.00,,,0.00,Wunderground v.1.15,2013-06-20 07:10:00,
2013-06-20 02:15:00,66.3,60.6,30.10,East,98,0.0,14.0,82,0.00,,,0.00,Wunderground v.1.15,2013-06-20 07:15:00,
2013-06-20 02:20:00,66.2,60.5,30.10,East,98,0.0,14.0,82,0.00,,,0.00,Wunderground v.1.15,2013-06-20 07:20:00,
2013-06-20 02:25:00,66.2,60.9,30.10,East,98,0.0,14.0,83,0.00,,,0.00,Wunderground v.1.15,2013-06-20 07:25:00,
2013-06-20 02:30:00,66.1,60.8,30.10,East,98,0.0,14.0,83,0.00,,,0.00,Wunderground v.1.15,2013-06-20 07:30:00,
2013-06-20 02:40:00,65.9,60.6,30.10,East,98,0.0,14.0,83,0.00,,,0.00,Wunderground v.1.15,2013-06-20 07:40:00,
2013-06-20 02:45:00,65.9,60.9,30.10,East,98,0.0,14.0,84,0.00,,,0.00,Wunderground v.1.15,2013-06-20 07:45:00,
2013-06-20 02:50:00,65.8,60.8,30.11,East,98,0.0,14.0,84,0.00,,,0.00,Wunderground v.1.15,2013-06-20 07:50:00,
2013-06-20 02:55:00,65.8,60.8,30.11,East,98,0.0,14.0,84,0.00,,,0.00,Wunderground v.1.15,2013-06-20 07:55:00,
2013-06-20 03:00:00,65.6,61.0,30.11,East,98,0.0,14.0,85,0.00,,,0.00,Wunderground v.1.15,2013-06-20 08:00:00,
2013-06-20 03:10:00,65.6,61.0,30.11,East,98,0.0,14.0,85,0.00,,,0.00,Wunderground v.1.15,2013-06-20 08:10:00,
2013-06-20 03:15:00,65.6,61.3,30.11,East,98,0.0,14.0,86,0.00,,,0.00,Wunderground v.1.15,2013-06-20 08:15:00,
2013-06-20 03:20:00,65.5,61.2,30.11,East,98,0.0,14.0,86,0.00,,,0.00,Wunderground v.1.15,2013-06-20 08:20:00,
2013-06-20 03:25:00,65.3,60.7,30.11,East,98,0.0,14.0,85,0.00,,,0.00,Wunderground v.1.15,2013-06-20 08:25:00,
2013-06-20 03:30:00,65.2,61.2,30.11,East,98,0.0,14.0,87,0.00,,,0.00,Wunderground v.1.15,2013-06-20 08:30:00,
2013-06-20 03:35:00,65.1,61.1,30.11,East,98,0.0,14.0,87,0.00,,,0.00,Wunderground v.1.15,2013-06-20 08:35:00,
2013-06-20 03:40:00,65.0,61.4,30.11,East,98,0.0,14.0,88,0.00,,,0.00,Wunderground v.1.15,2013-06-20 08:40:00,
2013-06-20 03:45:00,65.0,61.0,30.11,East,98,0.0,14.0,87,0.00,,,0.00,Wunderground v.1.15,2013-06-20 08:45:00,
2013-06-20 03:50:00,65.0,61.4,30.11,East,98,0.0,14.0,88,0.00,,,0.00,Wunderground v.1.15,2013-06-20 08:50:00,
2013-06-20 03:55:00,64.9,61.3,30.11,East,98,0.0,14.0,88,0.00,,,0.00,Wunderground v.1.15,2013-06-20 08:55:00,
2013-06-20 04:00:00,64.9,61.3,30.11,East,98,0.0,14.0,88,0.00,,,0.00,Wunderground v.1.15,2013-06-20 09:00:00,
2013-06-20 04:05:00,64.9,61.3,30.11,East,98,0.0,14.0,88,0.00,,,0.00,Wunderground v.1.15,2013-06-20 09:05:00,
2013-06-20 04:15:00,65.0,61.7,30.11,East,98,0.0,14.0,89,0.00,,,0.00,Wunderground v.1.15,2013-06-20 09:15:00,
2013-06-20 04:20:00,65.0,61.4,30.11,East,98,0.0,14.0,88,0.00,,,0.00,Wunderground v.1.15,2013-06-20 09:20:00,
2013-06-20 04:25:00,64.8,61.2,30.11,East,98,0.0,14.0,88,0.00,,,0.00,Wunderground v.1.15,2013-06-20 09:25:00,
2013-06-20 04:30:00,64.7,61.4,30.11,East,98,0.0,14.0,89,0.00,,,0.00,Wunderground v.1.15,2013-06-20 09:30:00,
2013-06-20 04:35:00,64.7,61.7,30.11,East,98,0.0,14.0,90,0.00,,,0.00,Wunderground v.1.15,2013-06-20 09:35:00,
2013-06-20 04:45:00,64.5,61.5,30.11,East,98,0.0,14.0,90,0.00,,,0.00,Wunderground v.1.15,2013-06-20 09:45:00,
2013-06-20 04:50:00,64.4,61.4,30.11,East,98,0.0,14.0,90,0.00,,,0.00,Wunderground v.1.15,2013-06-20 09:50:00,
2013-06-20 04:55:00,64.3,61.3,30.11,East,98,0.0,14.0,90,0.00,,,0.00,Wunderground v.1.15,2013-06-20 09:55:00,
2013-06-20 05:00:00,64.2,61.2,30.11,East,98,0.0,14.0,90,0.00,,,0.00,Wunderground v.1.15,2013-06-20 10:00:00,
2013-06-20 05:05:00,64.1,61.4,30.11,East,98,0.0,14.0,91,0.00,,,0.00,Wunderground v.1.15,2013-06-20 10:05:00,
2013-06-20 05:10:00,64.1,61.4,30.11,East,98,0.0,14.0,91,0.00,,,0.00,Wunderground v.1.15,2013-06-20 10:10:00,
2013-06-20 05:20:00,64.4,62.0,30.11,East,98,0.0,14.0,92,0.00,,,0.00,Wunderground v.1.15,2013-06-20 10:20:00,
2013-06-20 05:25:00,64.6,62.2,30.11,East,98,0.0,14.0,92,0.00,,,0.00,Wunderground v.1.15,2013-06-20 10:25:00,
2013-06-20 05:30:00,64.8,62.4,30.12,East,98,0.0,14.0,92,0.00,,,0.00,Wunderground v.1.15,2013-06-20 10:30:00,
2013-06-20 05:35:00,64.9,62.5,30.12,East,98,0.0,14.0,92,0.00,,,0.00,Wunderground v.1.15,2013-06-20 10:35:00,
2013-06-20 05:40:00,65.0,62.6,30.12,East,98,0.0,14.0,92,0.00,,,0.00,Wunderground v.1.15,2013-06-20 10:40:00,
2013-06-20 05:50:00,65.3,62.9,30.12,East,98,0.0,14.0,92,0.00,,,0.00,Wunderground v.1.15,2013-06-20 10:50:00,
2013-06-20 05:55:00,65.4,63.0,30.12,East,98,0.0,14.0,92,0.00,,,0.00,Wunderground v.1.15,2013-06-20 10:55:00,
2013-06-20 06:00:00,65.6,62.9,30.12,East,98,0.0,14.0,91,0.00,,,0.00,Wunderground v.1.15,2013-06-20 11:00:00,
2013-06-20 06:05:00,65.8,63.4,30.13,ESE,104,0.0,14.0,92,0.00,,,0.00,Wunderground v.1.15,2013-06-20 11:05:00,
2013-06-20 06:10:00,65.9,63.5,30.13,ESE,105,0.0,14.0,92,0.00,,,0.00,Wunderground v.1.15,2013-06-20 11:10:00,
2013-06-20 06:20:00,66.3,63.6,30.13,SE,139,0.0,14.0,91,0.00,,,0.00,Wunderground v.1.15,2013-06-20 11:20:00,
2013-06-20 06:25:00,66.5,63.8,30.13,SE,139,0.0,14.0,91,0.00,,,0.00,Wunderground v.1.15,2013-06-20 11:25:00,
2013-06-20 06:30:00,66.8,64.1,30.13,SE,140,0.0,14.0,91,0.00,,,0.00,Wunderground v.1.15,2013-06-20 11:30:00,
2013-06-20 06:35:00,67.1,64.4,30.13,SE,142,0.0,14.0,91,0.00,,,0.00,Wunderground v.1.15,2013-06-20 11:35:00,
2013-06-20 06:40:00,67.4,64.7,30.13,SE,143,1.0,14.0,91,0.00,,,0.00,Wunderground v.1.15,2013-06-20 11:40:00,
2013-06-20 06:45:00,67.8,65.1,30.13,SE,144,1.0,14.0,91,0.00,,,0.00,Wunderground v.1.15,2013-06-20 11:45:00,
2013-06-20 06:55:00,68.8,65.7,30.13,SSE,157,2.0,14.0,90,0.00,,,0.00,Wunderground v.1.15,2013-06-20 11:55:00,
2013-06-20 07:00:00,69.2,66.1,30.13,SSW,200,1.0,1.0,90,0.00,,,0.00,Wunderground v.1.15,2013-06-20 12:00:00,
2013-06-20 07:05:00,69.7,66.3,30.14,SSW,200,1.0,14.0,89,0.00,,,0.00,Wunderground v.1.15,2013-06-20 12:05:00,
2013-06-20 07:10:00,70.1,66.7,30.14,SSW,198,1.0,1.0,89,0.00,,,0.00,Wunderground v.1.15,2013-06-20 12:10:00,
2013-06-20 07:15:00,70.6,66.9,30.14,SSW,201,1.0,4.0,88,0.00,,,0.00,Wunderground v.1.15,2013-06-20 12:15:00,
2013-06-20 07:25:00,71.4,67.3,30.14,SSW,204,3.0,14.0,87,0.00,,,0.00,Wunderground v.1.15,2013-06-20 12:25:00,
2013-06-20 07:30:00,71.8,67.7,30.14,SSW,200,2.0,2.0,87,0.00,,,0.00,Wunderground v.1.15,2013-06-20 12:30:00,
2013-06-20 07:35:00,72.3,68.2,30.14,SSW,200,2.0,14.0,87,0.00,,,0.00,Wunderground v.1.15,2013-06-20 12:35:00,
2013-06-20 07:40:00,72.8,68.7,30.14,SSW,202,1.0,14.0,87,0.00,,,0.00,Wunderground v.1.15,2013-06-20 12:40:00,
2013-06-20 07:45:00,73.2,68.8,30.14,SSW,205,1.0,14.0,86,0.00,,,0.00,Wunderground v.1.15,2013-06-20 12:45:00,
2013-06-20 07:50:00,73.6,68.5,30.14,SW,217,2.0,14.0,84,0.00,,,0.00,Wunderground v.1.15,2013-06-20 12:50:00,
2013-06-20 08:00:00,74.5,69.3,30.14,SW,215,2.0,14.0,84,0.00,,,0.00,Wunderground v.1.15,2013-06-20 13:00:00,
2013-06-20 08:05:00,74.9,69.0,30.14,SW,215,1.0,14.0,82,0.00,,,0.00,Wunderground v.1.15,2013-06-20 13:05:00,
2013-06-20 08:10:00,75.2,69.3,30.14,SW,215,2.0,14.0,82,0.00,,,0.00,Wunderground v.1.15,2013-06-20 13:10:00,
2013-06-20 08:15:00,75.6,69.4,30.14,SW,214,2.0,14.0,81,0.00,,,0.00,Wunderground v.1.15,2013-06-20 13:15:00,
2013-06-20 08:20:00,76.0,69.7,30.14,SSW,212,2.0,2.0,81,0.00,,,0.00,Wunderground v.1.15,2013-06-20 13:20:00,
2013-06-20 08:25:00,76.3,70.0,30.14,SSW,196,2.0,3.0,81,0.00,,,0.00,Wunderground v.1.15,2013-06-20 13:25:00,
2013-06-20 08:30:00,76.6,70.0,30.14,SSW,194,2.0,14.0,80,0.00,,,0.00,Wunderground v.1.15,2013-06-20 13:30:00,
2013-06-20 08:35:00,76.9,70.3,30.14,SSW,195,2.0,14.0,80,0.00,,,0.00,Wunderground v.1.15,2013-06-20 13:35:00,
2013-06-20 08:40:00,77.2,69.8,30.14,SSW,196,2.0,14.0,78,0.00,,,0.00,Wunderground v.1.15,2013-06-20 13:40:00,
2013-06-20 08:45:00,77.6,70.2,30.14,SSW,198,2.0,14.0,78,0.00,,,0.00,Wunderground v.1.15,2013-06-20 13:45:00,
2013-06-20 08:50:00,77.9,70.1,30.14,SSW,200,2.0,14.0,77,0.00,,,0.00,Wunderground v.1.15,2013-06-20 13:50:00,
2013-06-20 09:00:00,78.8,71.4,30.14,SSW,199,1.0,1.0,78,0.00,,,0.00,Wunderground v.1.15,2013-06-20 14:00:00,
2013-06-20 09:05:00,79.3,70.7,30.14,South,184,1.0,14.0,75,0.00,,,0.00,Wunderground v.1.15,2013-06-20 14:05:00,
2013-06-20 09:10:00,79.6,70.6,30.14,South,190,1.0,14.0,74,0.00,,,0.00,Wunderground v.1.15,2013-06-20 14:10:00,
2013-06-20 09:15:00,80.0,71.8,30.14,South,189,1.0,14.0,76,0.00,,,0.00,Wunderground v.1.15,2013-06-20 14:15:00,
2013-06-20 09:20:00,80.1,70.7,30.14,SW,216,2.0,14.0,73,0.00,,,0.00,Wunderground v.1.15,2013-06-20 14:20:00,
2013-06-20 09:25:00,80.2,70.8,30.14,SW,223,2.0,14.0,73,0.00,,,0.00,Wunderground v.1.15,2013-06-20 14:25:00,
2013-06-20 09:35:00,80.6,70.7,30.14,WSW,237,2.0,4.0,72,0.00,,,0.00,Wunderground v.1.15,2013-06-20 14:35:00,
2013-06-20 09:40:00,80.9,70.2,30.15,South,191,2.0,2.0,70,0.00,,,0.00,Wunderground v.1.15,2013-06-20 14:40:00,
2013-06-20 09:45:00,81.0,71.1,30.15,South,184,3.0,5.0,72,0.00,,,0.00,Wunderground v.1.15,2013-06-20 14:45:00,
2013-06-20 09:50:00,81.2,70.5,30.15,SSE,156,3.0,14.0,70,0.00,,,0.00,Wunderground v.1.15,2013-06-20 14:50:00,
2013-06-20 09:55:00,81.4,70.2,30.15,SSW,201,3.0,14.0,69,0.00,,,0.00,Wunderground v.1.15,2013-06-20 14:55:00,
2013-06-20 10:05:00,82.0,71.2,30.14,SSW,198,3.0,14.0,70,0.00,,,0.00,Wunderground v.1.15,2013-06-20 15:05:00,
2013-06-20 10:10:00,81.5,68.6,30.14,SW,217,4.0,4.0,65,0.00,,,0.00,Wunderground v.1.15,2013-06-20 15:10:00,
2013-06-20 10:15:00,80.9,69.3,30.14,WSW,246,4.0,14.0,68,0.00,,,0.00,Wunderground v.1.15,2013-06-20 15:15:00,
2013-06-20 10:20:00,80.9,68.9,30.14,SW,234,3.0,14.0,67,0.00,,,0.00,Wunderground v.1.15,2013-06-20 15:20:00,
2013-06-20 10:25:00,81.1,69.5,30.14,South,190,4.0,14.0,68,0.00,,,0.00,Wunderground v.1.15,2013-06-20 15:25:00,
2013-06-20 10:35:00,82.1,70.1,30.14,SSE,167,3.0,6.0,67,0.00,,,0.00,Wunderground v.1.15,2013-06-20 15:35:00,
2013-06-20 10:40:00,82.6,71.4,30.14,SSW,197,3.0,14.0,69,0.00,,,0.00,Wunderground v.1.15,2013-06-20 15:40:00,
2013-06-20 10:45:00,83.1,70.6,30.14,SSW,201,3.0,14.0,66,0.00,,,0.00,Wunderground v.1.15,2013-06-20 15:45:00,
2013-06-20 10:50:00,83.4,70.4,30.14,SSW,200,3.0,3.0,65,0.00,,,0.00,Wunderground v.1.15,2013-06-20 15:50:00,
2013-06-20 10:55:00,82.9,68.1,30.14,SSW,208,4.0,5.0,61,0.00,,,0.00,Wunderground v.1.15,2013-06-20 15:55:00,
2013-06-20 11:00:00,81.4,67.6,30.14,SW,234,3.0,3.0,63,0.00,,,0.00,Wunderground v.1.15,2013-06-20 16:00:00,
2013-06-20 11:10:00,82.2,69.3,30.14,SW,227,3.0,14.0,65,0.00,,,0.00,Wunderground v.1.15,2013-06-20 16:10:00,
2013-06-20 11:15:00,82.9,68.5,30.14,SSW,210,4.0,14.0,62,0.00,,,0.00,Wunderground v.1.15,2013-06-20 16:15:00,
2013-06-20 20:55:00,78.8,63.3,30.07,SSW,196,3.0,3.0,59,0.00,,,0.00,Wunderground v.1.15,2013-06-21 01:55:00,
2013-06-20 21:05:00,78.3,62.8,30.07,SSW,195,3.0,4.0,59,0.00,,,0.00,Wunderground v.1.15,2013-06-21 02:05:00,
2013-06-20 21:10:00,78.2,63.2,30.08,SSW,195,3.0,3.0,60,0.00,,,0.00,Wunderground v.1.15,2013-06-21 02:10:00,
2013-06-20 21:15:00,78.0,63.0,30.08,SSW,195,2.0,3.0,60,0.00,,,0.00,Wunderground v.1.15,2013-06-21 02:15:00,
2013-06-20 21:20:00,77.9,62.9,30.08,SSW,195,2.0,3.0,60,0.00,,,0.00,Wunderground v.1.15,2013-06-21 02:20:00,
2013-06-20 21:25:00,77.8,63.3,30.08,SSW,196,3.0,3.0,61,0.00,,,0.00,Wunderground v.1.15,2013-06-21 02:25:00,
2013-06-20 21:30:00,77.5,63.0,30.08,SSW,196,2.0,2.0,61,0.00,,,0.00,Wunderground v.1.15,2013-06-21 02:30:00,
2013-06-20 21:35:00,77.3,62.8,30.09,SSW,196,2.0,3.0,61,0.00,,,0.00,Wunderground v.1.15,2013-06-21 02:35:00,
2013-06-20 21:40:00,77.1,63.1,30.09,SSW,196,3.0,7.0,62,0.00,,,0.00,Wunderground v.1.15,2013-06-21 02:40:00,
2013-06-20 21:45:00,76.9,62.9,30.09,SSW,194,3.0,7.0,62,0.00,,,0.00,Wunderground v.1.15,2013-06-21 02:45:00,
2013-06-20 21:50:00,76.8,62.8,30.09,SSW,197,3.0,3.0,62,0.00,,,0.00,Wunderground v.1.15,2013-06-21 02:50:00,
2013-06-20 21:55:00,76.6,62.6,30.09,SSW,195,4.0,4.0,62,0.00,,,0.00,Wunderground v.1.15,2013-06-21 02:55:00,
2013-06-20 22:00:00,76.5,62.5,30.09,SSW,196,4.0,4.0,62,0.00,,,0.00,Wunderground v.1.15,2013-06-21 03:00:00,
2013-06-20 22:10:00,76.3,62.3,30.09,SSW,202,4.0,4.0,62,0.00,,,0.00,Wunderground v.1.15,2013-06-21 03:10:00,
2013-06-20 22:15:00,76.4,62.4,30.09,SSW,198,4.0,7.0,62,0.00,,,0.00,Wunderground v.1.15,2013-06-21 03:15:00,
2013-06-20 22:20:00,76.5,62.5,30.10,SSW,201,4.0,4.0,62,0.00,,,0.00,Wunderground v.1.15,2013-06-21 03:20:00,
2013-06-20 22:25:00,76.5,62.5,30.10,SSW,206,4.0,7.0,62,0.00,,,0.00,Wunderground v.1.15,2013-06-21 03:25:00,
2013-06-20 22:30:00,76.5,62.0,30.10,SSW,200,4.0,7.0,61,0.00,,,0.00,Wunderground v.1.15,2013-06-21 03:30:00,
2013-06-20 22:40:00,76.4,62.4,30.10,SW,215,4.0,7.0,62,0.00,,,0.00,Wunderground v.1.15,2013-06-21 03:40:00,
2013-06-20 22:45:00,76.3,62.3,30.10,SSW,213,3.0,7.0,62,0.00,,,0.00,Wunderground v.1.15,2013-06-21 03:45:00,
2013-06-20 22:50:00,76.2,62.2,30.10,SSW,212,4.0,7.0,62,0.00,,,0.00,Wunderground v.1.15,2013-06-21 03:50:00,
2013-06-20 22:55:00,76.0,62.5,30.10,SSW,203,4.0,7.0,63,0.00,,,0.00,Wunderground v.1.15,2013-06-21 03:55:00,
2013-06-20 23:00:00,75.8,62.3,30.10,SSW,202,4.0,7.0,63,0.00,,,0.00,Wunderground v.1.15,2013-06-21 04:00:00,
2013-06-20 23:05:00,75.7,62.7,30.11,SSW,205,3.0,7.0,64,0.00,,,0.00,Wunderground v.1.15,2013-06-21 04:05:00,
2013-06-20 23:10:00,75.3,62.7,30.11,SSW,203,3.0,7.0,65,0.00,,,0.00,Wunderground v.1.15,2013-06-21 04:10:00,
2013-06-20 23:15:00,75.1,62.5,30.11,SSW,200,3.0,7.0,65,0.00,,,0.00,Wunderground v.1.15,2013-06-21 04:15:00,
2013-06-20 23:20:00,74.9,62.8,30.11,SSW,197,3.0,7.0,66,0.00,,,0.00,Wunderground v.1.15,2013-06-21 04:20:00,
2013-06-20 23:25:00,74.7,63.0,30.11,SSW,194,3.0,7.0,67,0.00,,,0.00,Wunderground v.1.15,2013-06-21 04:25:00,
2013-06-20 23:30:00,74.5,62.8,30.11,SSW,194,2.0,2.0,67,0.00,,,0.00,Wunderground v.1.15,2013-06-21 04:30:00,
2013-06-20 23:35:00,74.3,63.1,30.11,SSW,194,2.0,7.0,68,0.00,,,0.00,Wunderground v.1.15,2013-06-21 04:35:00,
2013-06-20 23:45:00,74.0,63.2,30.11,SSW,194,3.0,7.0,69,0.00,,,0.00,Wunderground v.1.15,2013-06-21 04:45:00,
2013-06-20 23:50:00,74.0,63.2,30.11,SSW,193,3.0,7.0,69,0.00,,,0.00,Wunderground v.1.15,2013-06-21 04:50:00,
2013-06-20 23:55:00,74.0,63.2,30.11,South,186,4.0,7.0,69,0.00,,,0.00,Wunderground v.1.15,2013-06-21 04:55:00,